Time,TemperatureF,DewpointF,PressureIn,WindDirection,WindDirectionDegrees,WindSpeedMPH,WindSpeedGustMPH,Humidity,HourlyPrecipIn,Conditions,Clouds,dailyrainin,SolarRadiationWatts/m^2,SoftwareType,DateUTC
2013-06-01 00:06:00,61.4,57.0,29.88,SE,125,0.0,-999.0,85,-99.99,,,0.00,0,weatherlink.com 1.10,2013-06-01 07:06:00,
2013-06-01 00:21:00,60.9,56.0,29.87,SE,125,0.0,-999.0,85,-99.99,,,0.00,0,weatherlink.com 1.10,2013-06-01 07:21:00,
2013-06-01 00:37:00,60.6,56.0,29.87,SE,125,0.0,-999.0,86,-99.99,,,0.00,0,weatherlink.com 1.10,2013-06-01 07:37:00,
2013-06-01 00:52:00,60.5,57.0,29.86,SE,125,0.0,-999.0,87,-99.99,,,0.00,0,weatherlink.com 1.10,2013-06-01 07:52:00,
2013-06-01 01:07:00,60.6,57.0,29.87,SE,125,0.0,-999.0,87,-99.99,,,0.00,0,weatherlink.com 1.10,2013-06-01 08:07:00,
2013-06-01 01:22:00,60.7,57.0,29.86,SE,125,0.0,-999.0,87,-99.99,,,0.00,0,weatherlink.com 1.10,2013-06-01 08:22:00,
2013-06-01 01:37:00,60.9,57.0,29.86,SE,125,0.0,-999.0,87,-99.99,,,0.00,0,weatherlink.com 1.10,2013-06-01 08:37:00,
2013-06-01 01:52:00,61.1,57.0,29.86,East,94,0.0,-999.0,87,-99.99,,,0.00,0,weatherlink.com 1.10,2013-06-01 08:52:00,
2013-06-01 02:07:00,61.5,57.0,29.86,ESE,113,0.0,-999.0,86,-99.99,,,0.00,0,weatherlink.com 1.10,2013-06-01 09:07:00,
2013-06-01 02:22:00,61.7,58.0,29.86,ENE,72,0.0,-999.0,86,-99.99,,,0.00,0,weatherlink.com 1.10,2013-06-01 09:22:00,
2013-06-01 02:37:00,62.3,58.0,29.85,East,82,0.0,-999.0,87,-99.99,,,0.00,0,weatherlink.com 1.10,2013-06-01 09:37:00,
2013-06-01 02:52:00,62.3,59.0,29.84,East,91,0.0,-999.0,88,-99.99,,,0.00,0,weatherlink.com 1.10,2013-06-01 09:52:00,
2013-06-01 03:07:00,62.3,59.0,29.84,East,90,0.0,-999.0,88,-99.99,,,0.00,0,weatherlink.com 1.10,2013-06-01 10:07:00,
2013-06-01 03:22:00,62.3,59.0,29.84,East,90,0.0,-999.0,89,-99.99,,,0.00,0,weatherlink.com 1.10,2013-06-01 10:22:00,
2013-06-01 03:37:00,62.3,59.0,29.84,East,90,0.0,-999.0,89,-99.99,,,0.00,0,weatherlink.com 1.10,2013-06-01 10:37:00,
2013-06-01 03:52:00,62.2,59.0,29.84,East,90,0.0,-999.0,89,-99.99,,,0.00,0,weatherlink.com 1.10,2013-06-01 10:52:00,
2013-06-01 04:07:00,62.2,59.0,29.83,East,90,0.0,-999.0,89,-99.99,,,0.00,0,weatherlink.com 1.10,2013-06-01 11:07:00,
2013-06-01 04:22:00,62.1,59.0,29.83,East,90,0.0,-999.0,90,-99.99,,,0.00,0,weatherlink.com 1.10,2013-06-01 11:22:00,
2013-06-01 04:37:00,62.1,59.0,29.83,East,90,0.0,-999.0,90,-99.99,,,0.00,0,weatherlink.com 1.10,2013-06-01 11:37:00,
2013-06-01 04:52:00,62.0,59.0,29.83,East,90,0.0,-999.0,90,-99.99,,,0.00,0,weatherlink.com 1.10,2013-06-01 11:52:00,
2013-06-01 05:07:00,62.0,59.0,29.84,East,90,0.0,-999.0,90,-99.99,,,0.00,0,weatherlink.com 1.10,2013-06-01 12:07:00,
2013-06-01 05:22:00,62.0,59.0,29.84,East,90,0.0,-999.0,90,-99.99,,,0.00,0,weatherlink.com 1.10,2013-06-01 12:22:00,
2013-06-01 05:37:00,62.0,59.0,29.84,East,90,0.0,-999.0,90,-99.99,,,0.00,0,weatherlink.com 1.10,2013-06-01 12:37:00,
2013-06-01 05:52:00,62.0,59.0,29.84,East,90,0.0,-999.0,90,-99.99,,,0.00,0,weatherlink.com 1.10,2013-06-01 12:52:00,
2013-06-01 06:07:00,62.0,59.0,29.84,East,90,0.0,-999.0,90,-99.99,,,0.00,7,weatherlink.com 1.10,2013-06-01 13:07:00,
2013-06-01 06:22:00,62.1,59.0,29.84,East,88,0.0,-999.0,90,-99.99,,,0.00,16,weatherlink.com 1.10,2013-06-01 13:22:00,
2013-06-01 06:37:00,62.2,59.0,29.84,East,88,0.0,-999.0,90,-99.99,,,0.00,32,weatherlink.com 1.10,2013-06-01 13:37:00,
2013-06-01 06:52:00,62.4,60.0,29.85,East,84,0.0,-999.0,90,-99.99,,,0.00,42,weatherlink.com 1.10,2013-06-01 13:52:00,
2013-06-01 07:07:00,62.6,60.0,29.84,East,84,0.0,-999.0,90,-99.99,,,0.00,12,weatherlink.com 1.10,2013-06-01 14:07:00,
2013-06-01 07:22:00,62.8,60.0,29.84,NE,42,0.0,-999.0,90,-99.99,,,0.00,62,weatherlink.com 1.10,2013-06-01 14:22:00,
2013-06-01 07:37:00,63.1,60.0,29.84,NE,37,0.0,-999.0,89,-99.99,,,0.00,93,weatherlink.com 1.10,2013-06-01 14:37:00,
2013-06-01 07:52:00,63.4,60.0,29.84,East,94,0.0,-999.0,89,-99.99,,,0.00,116,weatherlink.com 1.10,2013-06-01 14:52:00,
2013-06-01 08:07:00,63.8,61.0,29.84,East,94,0.0,-999.0,89,-99.99,,,0.00,178,weatherlink.com 1.10,2013-06-01 15:07:00,
2013-06-01 08:22:00,64.5,61.0,29.84,NNE,30,0.0,-999.0,87,-99.99,,,0.00,255,weatherlink.com 1.10,2013-06-01 15:22:00,
2013-06-01 08:37:00,65.3,61.0,29.84,WSW,243,2.0,-999.0,86,-99.99,,,0.00,214,weatherlink.com 1.10,2013-06-01 15:37:00,
2013-06-01 08:52:00,65.9,61.0,29.84,WSW,245,0.0,-999.0,84,-99.99,,,0.00,255,weatherlink.com 1.10,2013-06-01 15:52:00,
2013-06-01 09:07:00,66.8,62.0,29.84,West,269,0.0,-999.0,83,-99.99,,,0.00,325,weatherlink.com 1.10,2013-06-01 16:07:00,
2013-06-01 09:23:00,68.5,62.0,29.83,SW,231,0.0,-999.0,80,-99.99,,,0.00,703,weatherlink.com 1.10,2013-06-01 16:23:00,
2013-06-01 09:38:00,70.5,63.0,29.83,WNW,285,0.0,-999.0,76,-99.99,,,0.00,784,weatherlink.com 1.10,2013-06-01 16:38:00,
2013-06-01 09:53:00,71.8,62.0,29.82,SW,234,0.0,-999.0,72,-99.99,,,0.00,812,weatherlink.com 1.10,2013-06-01 16:53:00,
2013-06-01 10:08:00,72.7,63.0,29.82,West,266,0.0,-999.0,71,-99.99,,,0.00,856,weatherlink.com 1.10,2013-06-01 17:08:00,
2013-06-01 10:24:00,74.2,63.0,29.82,WSW,252,3.0,-999.0,68,-99.99,,,0.00,624,weatherlink.com 1.10,2013-06-01 17:24:00,
2013-06-01 10:38:00,74.7,63.0,29.82,WSW,253,0.0,-999.0,66,-99.99,,,0.00,953,weatherlink.com 1.10,2013-06-01 17:38:00,
2013-06-01 10:53:00,76.0,62.0,29.81,WSW,253,3.0,-999.0,63,-99.99,,,0.00,826,weatherlink.com 1.10,2013-06-01 17:53:00,
2013-06-01 11:08:00,77.3,63.0,29.81,West,264,2.0,-999.0,61,-99.99,,,0.00,842,weatherlink.com 1.10,2013-06-01 18:08:00,
2013-06-01 11:23:00,79.2,63.0,29.81,NW,306,0.0,-999.0,58,-99.99,,,0.00,875,weatherlink.com 1.10,2013-06-01 18:23:00,
2013-06-01 11:38:00,80.3,64.0,29.81,WNW,302,1.0,-999.0,57,-99.99,,,0.00,969,weatherlink.com 1.10,2013-06-01 18:38:00,
2013-06-01 11:53:00,81.0,63.0,29.80,WSW,246,1.0,-999.0,55,-99.99,,,0.00,930,weatherlink.com 1.10,2013-06-01 18:53:00,
2013-06-01 12:08:00,81.5,64.0,29.80,NW,305,3.0,-999.0,55,-99.99,,,0.00,900,weatherlink.com 1.10,2013-06-01 19:08:00,
2013-06-01 12:23:00,82.8,64.0,29.80,NW,323,3.0,-999.0,54,-99.99,,,0.00,1046,weatherlink.com 1.10,2013-06-01 19:23:00,
2013-06-01 12:38:00,83.8,64.0,29.79,WNW,299,0.0,-999.0,52,-99.99,,,0.00,916,weatherlink.com 1.10,2013-06-01 19:38:00,
2013-06-01 12:53:00,83.6,64.0,29.79,WNW,297,2.0,-999.0,51,-99.99,,,0.00,953,weatherlink.com 1.10,2013-06-01 19:53:00,
2013-06-01 13:08:00,84.7,65.0,29.79,WNW,301,2.0,-999.0,51,-99.99,,,0.00,589,weatherlink.com 1.10,2013-06-01 20:08:00,
2013-06-01 13:23:00,84.2,64.0,29.79,West,260,6.0,-999.0,51,-99.99,,,0.00,663,weatherlink.com 1.10,2013-06-01 20:23:00,
2013-06-01 13:38:00,83.1,64.0,29.79,WNW,295,0.0,-999.0,53,-99.99,,,0.00,844,weatherlink.com 1.10,2013-06-01 20:38:00,
2013-06-01 13:53:00,83.6,64.0,29.78,SSE,154,0.0,-999.0,52,-99.99,,,0.00,703,weatherlink.com 1.10,2013-06-01 20:53:00,
2013-06-01 14:08:00,82.6,64.0,29.78,SW,233,0.0,-999.0,54,-99.99,,,0.00,904,weatherlink.com 1.10,2013-06-01 21:08:00,
2013-06-01 14:23:00,83.4,64.0,29.78,SW,214,5.0,-999.0,53,-99.99,,,0.00,775,weatherlink.com 1.10,2013-06-01 21:23:00,
2013-06-01 14:38:00,82.9,64.0,29.79,South,173,3.0,-999.0,53,-99.99,,,0.00,838,weatherlink.com 1.10,2013-06-01 21:38:00,
2013-06-01 14:54:00,81.8,64.0,29.79,South,181,4.0,-999.0,55,-99.99,,,0.00,816,weatherlink.com 1.10,2013-06-01 21:54:00,
2013-06-01 15:09:00,81.4,64.0,29.79,WSW,237,2.0,-999.0,55,-99.99,,,0.00,784,weatherlink.com 1.10,2013-06-01 22:09:00,
2013-06-01 15:23:00,80.8,64.0,29.79,SSW,212,0.0,-999.0,56,-99.99,,,0.00,738,weatherlink.com 1.10,2013-06-01 22:23:00,
2013-06-01 15:39:00,79.7,64.0,29.79,South,177,3.0,-999.0,58,-99.99,,,0.00,689,weatherlink.com 1.10,2013-06-01 22:39:00,
2013-06-01 15:54:00,78.6,63.0,29.79,SSE,158,3.0,-999.0,60,-99.99,,,0.00,652,weatherlink.com 1.10,2013-06-01 22:54:00,
2013-06-01 16:09:00,77.5,63.0,29.79,SSW,200,3.0,-999.0,61,-99.99,,,0.00,610,weatherlink.com 1.10,2013-06-01 23:09:00,
2013-06-01 16:24:00,76.9,63.0,29.79,SSW,206,3.0,-999.0,62,-99.99,,,0.00,577,weatherlink.com 1.10,2013-06-01 23:24:00,
2013-06-01 16:39:00,76.4,63.0,29.79,SE,140,5.0,-999.0,64,-99.99,,,0.00,529,weatherlink.com 1.10,2013-06-01 23:39:00,
2013-06-01 16:54:00,74.9,63.0,29.79,SW,232,3.0,-999.0,66,-99.99,,,0.00,473,weatherlink.com 1.10,2013-06-01 23:54:00,
2013-06-01 17:09:00,73.6,62.0,29.79,SSE,168,1.0,-999.0,67,-99.99,,,0.00,438,weatherlink.com 1.10,2013-06-02 00:09:00,
2013-06-01 17:24:00,72.1,62.0,29.79,SSW,207,4.0,-999.0,70,-99.99,,,0.00,190,weatherlink.com 1.10,2013-06-02 00:24:00,
2013-06-01 17:39:00,70.6,62.0,29.79,West,268,6.0,-999.0,73,-99.99,,,0.00,139,weatherlink.com 1.10,2013-06-02 00:39:00,
2013-06-01 17:54:00,69.5,61.0,29.79,SSW,195,4.0,-999.0,75,-99.99,,,0.00,141,weatherlink.com 1.10,2013-06-02 00:54:00,
2013-06-01 18:09:00,68.5,61.0,29.79,SSE,161,4.0,-999.0,77,-99.99,,,0.00,104,weatherlink.com 1.10,2013-06-02 01:09:00,
2013-06-01 18:24:00,67.7,61.0,29.79,WSW,258,5.0,-999.0,79,-99.99,,,0.00,86,weatherlink.com 1.10,2013-06-02 01:24:00,
2013-06-01 18:39:00,67.1,61.0,29.80,WSW,239,3.0,-999.0,80,-99.99,,,0.00,69,weatherlink.com 1.10,2013-06-02 01:39:00,
2013-06-01 18:54:00,66.5,61.0,29.80,SW,230,0.0,-999.0,81,-99.99,,,0.00,60,weatherlink.com 1.10,2013-06-02 01:54:00,
2013-06-01 19:09:00,66.3,61.0,29.80,SSW,201,3.0,-999.0,82,-99.99,,,0.00,35,weatherlink.com 1.10,2013-06-02 02:09:00,
2013-06-01 19:24:00,66.1,61.0,29.80,SW,215,0.0,-999.0,82,-99.99,,,0.00,23,weatherlink.com 1.10,2013-06-02 02:24:00,
2013-06-01 19:39:00,65.7,60.0,29.80,SW,233,0.0,-999.0,83,-99.99,,,0.00,12,weatherlink.com 1.10,2013-06-02 02:39:00,
2013-06-01 19:54:00,65.5,60.0,29.80,WSW,245,0.0,-999.0,83,-99.99,,,0.00,0,weatherlink.com 1.10,2013-06-02 02:54:00,
2013-06-01 20:09:00,65.4,61.0,29.81,South,184,0.0,-999.0,84,-99.99,,,0.00,0,weatherlink.com 1.10,2013-06-02 03:09:00,
2013-06-01 20:24:00,65.3,60.0,29.81,SSE,159,1.0,-999.0,84,-99.99,,,0.00,0,weatherlink.com 1.10,2013-06-02 03:24:00,
2013-06-01 20:39:00,65.1,60.0,29.81,SSE,155,0.0,-999.0,84,-99.99,,,0.00,0,weatherlink.com 1.10,2013-06-02 03:39:00,
2013-06-01 20:54:00,64.8,60.0,29.81,SSE,155,0.0,-999.0,84,-99.99,,,0.00,0,weatherlink.com 1.10,2013-06-02 03:54:00,
2013-06-01 21:09:00,64.6,60.0,29.81,SSE,155,0.0,-999.0,84,-99.99,,,0.00,0,weatherlink.com 1.10,2013-06-02 04:09:00,
2013-06-01 21:24:00,64.3,60.0,29.82,SSE,155,0.0,-999.0,85,-99.99,,,0.00,0,weatherlink.com 1.10,2013-06-02 04:24:00,
2013-06-01 21:39:00,64.2,60.0,29.83,SE,143,0.0,-999.0,86,-99.99,,,0.00,0,weatherlink.com 1.10,2013-06-02 04:39:00,
2013-06-01 21:54:00,64.3,60.0,29.83,SSE,150,0.0,-999.0,86,-99.99,,,0.00,0,weatherlink.com 1.10,2013-06-02 04:54:00,
2013-06-01 22:09:00,64.4,60.0,29.84,SE,132,4.0,-999.0,86,-99.99,,,0.00,0,weatherlink.com 1.10,2013-06-02 05:09:00,
2013-06-01 22:24:00,64.5,60.0,29.84,SE,141,2.0,-999.0,86,-99.99,,,0.00,0,weatherlink.com 1.10,2013-06-02 05:24:00,
2013-06-01 22:39:00,64.3,60.0,29.84,East,97,0.0,-999.0,86,-99.99,,,0.00,0,weatherlink.com 1.10,2013-06-02 05:39:00,
2013-06-01 22:54:00,64.3,60.0,29.84,East,97,0.0,-999.0,86,-99.99,,,0.00,0,weatherlink.com 1.10,2013-06-02 05:54:00,
2013-06-01 23:09:00,64.2,60.0,29.84,East,91,0.0,-999.0,87,-99.99,,,0.00,0,weatherlink.com 1.10,2013-06-02 06:09:00,
2013-06-01 23:24:00,64.3,60.0,29.84,SE,141,0.0,-999.0,87,-99.99,,,0.00,0,weatherlink.com 1.10,2013-06-02 06:24:00,
2013-06-01 23:39:00,64.3,60.0,29.84,SE,143,0.0,-999.0,86,-99.99,,,0.00,0,weatherlink.com 1.10,2013-06-02 06:39:00,
2013-06-01 23:54:00,64.1,60.0,29.84,ESE,109,0.0,-999.0,87,-99.99,,,0.00,0,weatherlink.com 1.10,2013-06-02 06:54:00,